#timestamp,LO_Frequency,Hit,StdDev 
1510848015.6,286047001.2,N
1510848035.4,286047000.2,N
1510848055.3,286047002.0,N
1510848075.1,286047004.0,N
1510848095.8,286047003.1,N
1510848115.7,286047005.3,N
1510848135.5,286047000.3,N
1510848155.3,286047000.5,N
1510848175.2,286046999.8,N
1510848195.9,286047002.5,N
1510848215.7,286047003.4,N
1510848235.6,286047001.8,N
1510848255.4,286047004.3,N
1510848275.2,286047000.0,N
1510848295.1,286046998.7,N
1510848296.0,286046998.7,N
1510848315.8,286046999.7,N
1510848335.6,286046999.1,N
1510848355.5,286046997.5,N
1510848375.3,286046998.0,N
1510848395.1,286046999.6,N
1510848415.9,286046999.0,N
1510848435.7,286046995.4,N
1510848455.5,286046995.6,N
1510848475.3,286046996.3,N
1510848495.2,286046994.8,N
1510848515.0,286046993.7,N
1510848515.9,286046993.7,N
1510848535.7,286046995.4,N
1510848555.6,286046995.4,N
1510848575.4,286046996.7,N
1510848595.2,286047001.7,N
1510848615.1,286047005.5,N
1510848616.0,286047005.5,N
1510848635.8,286047007.3,N
1510848655.6,286047007.5,N
1510848675.5,286047006.2,N
1510848695.3,286047007.0,N
1510848715.1,286047005.8,N
1510848735.9,286047000.9,N
1510848755.7,286046997.1,N
1510848775.5,286046995.2,N
1510848795.4,286046999.2,N
1510848815.2,286046995.2,N
1510848835.0,286046993.6,N
1510848835.9,286046993.6,N
1510848855.8,286046996.4,N
1510848875.6,286046995.4,N
1510848895.4,286046996.7,N
1510848915.2,286046997.0,N
1510848935.1,286047000.6,N
1510848936.0,286047000.6,N
1510848955.8,286047001.3,N
1510848975.6,286047002.7,N
1510848995.5,286046998.8,N
1510849015.3,286047002.1,N
1510849035.1,286047002.1,N
1510849055.9,286046998.6,N
1510849075.7,286046999.6,N
1510849095.5,286046997.8,N
1510849115.4,286046997.1,N
1510849135.2,286047000.2,N
1510849155.0,286047003.3,N
1510849155.9,286047003.3,N
1510849175.8,286047001.6,N
1510849195.6,286047002.6,N
1510849215.4,286047000.5,N
1510849235.3,286046998.9,N
1510849255.1,286046993.7,N
1510849256.0,286046993.7,N
1510849275.8,286046992.6,N
1510849295.7,286046991.6,N
1510849315.5,286046989.8,N
1510849335.3,286046990.7,N
1510849355.2,286046992.2,N
1510849375.9,286046995.3,N
1510849395.7,286046995.9,N
1510849415.5,286046990.6,N
1510849435.4,286046990.9,N
1510849455.2,286046985.3,Y
1510849475.1,286046986.2,P
1510849476.0,286046986.2,N
1510849495.8,286046989.7,N
1510849515.6,286046991.6,N
1510849535.4,286046992.0,N
1510849555.3,286046996.1,N
1510849575.1,286046991.8,N
1510849595.8,286046991.3,N
1510849615.7,286046996.1,N
1510849635.5,286046999.0,N
1510849655.3,286046999.3,N
1510849675.2,286047001.0,N
1510849695.0,286047000.5,N
1510849695.9,286047000.5,N
1510849715.7,286046996.5,N
1510849735.6,286046991.8,N
1510849755.4,286046990.4,N
1510849775.2,286046989.5,N
1510849795.1,286046985.4,Y
1510849796.0,286046985.4,P
1510849815.8,286046988.6,N
1510849835.6,286046988.6,P
1510849855.5,286046986.4,Y
1510849875.3,286046993.7,P
1510849895.1,286046999.2,N
1510849915.9,286047003.9,N
1510849935.7,286047004.8,N
1510849955.5,286047006.0,N
1510849975.4,286047005.5,N
1510849995.2,286047007.6,N
1510850015.0,286047005.6,N
1510850015.9,286047005.6,N
1510850035.8,286047007.0,N
1510850055.6,286047009.8,N
1510850075.4,286047007.7,N
1510850095.3,286047008.9,N
1510850115.1,286047007.0,N
1510850116.0,286047007.0,N
1510850135.8,286047004.6,N
1510850155.7,286047011.1,N
1510850175.5,286047016.8,Y
1510850195.3,286047011.9,P
1510850215.2,286047008.0,N
1510850235.9,286047006.9,N
1510850255.7,286047006.3,N
1510850275.6,286047010.1,Y
1510850295.4,286047005.8,P
1510850315.2,286047002.6,N
1510850335.1,286047002.7,N
1510850336.0,286047002.7,N
1510850355.8,286046998.8,N
1510850375.6,286046995.8,N
1510850395.4,286046990.9,N
1510850415.3,286046990.0,N
1510850435.1,286046986.7,N
1510850455.8,286046983.0,N
1510850475.7,286046979.8,N
1510850495.5,286046981.8,N
1510850515.3,286046982.5,N
1510850535.2,286046985.3,N
1510850555.0,286046987.1,N
1510850555.9,286046987.1,N
1510850575.7,286046986.2,N
1510850595.6,286046987.3,N
1510850615.4,286046986.9,N
1510850635.2,286046985.4,N
1510850655.1,286046987.5,N
1510850656.0,286046987.5,N
1510850675.8,286046990.0,N
1510850695.6,286046989.2,N
1510850715.5,286046989.1,N
1510850735.3,286046988.8,N
1510850755.1,286046990.9,N
1510850775.9,286046994.3,N
1510850795.7,286046992.5,N
1510850815.5,286046988.5,N
1510850835.3,286046989.3,N
1510850855.2,286046990.0,N
1510850875.0,286046985.9,N
1510850875.9,286046985.9,Y
1510850895.8,286046994.6,P
1510850915.6,286046992.3,N
1510850935.4,286046996.7,N
1510850955.2,286047000.3,N
1510850975.1,286047002.3,N
1510850976.0,286047002.3,N
1510850995.8,286046998.2,N
1510851015.6,286047002.1,N
1510851035.5,286047002.9,N
1510851055.3,286047005.2,N
1510851075.1,286047003.5,N
1510851095.9,286047003.5,N
1510851115.7,286047003.0,N
1510851135.5,286047005.7,N
1510851155.4,286047005.5,N
1510851175.2,286047009.2,N
1510851195.0,286047009.0,N
1510851195.9,286047009.0,N
1510851215.8,286047009.9,N
1510851235.6,286047010.4,N
1510851255.4,286047008.5,N
1510851275.3,286047009.5,N
1510851295.1,286047016.5,N
1510851296.0,286047016.5,N
1510851315.8,286047013.0,N
1510851335.7,286047018.6,N
1510851355.5,286047022.0,Y
1510851375.3,286047015.0,P
1510851395.2,286047019.6,P
1510851415.9,286047017.8,N
1510851435.7,286047017.0,Y
1510851455.6,286047002.2,P
1510851475.4,286047007.0,N
1510851495.2,286047007.4,N
1510851515.0,286047006.7,N
1510851516.0,286047006.7,N
1510851535.8,286047003.5,N
1510851555.6,286046999.7,N
1510851575.4,286046998.2,N
1510851595.3,286046998.6,N
